Date String (YYYY-MM-DD hh:mm:ss) UTC,Instrument flags,Ambient pressure (hPa),Sample flow (lpm),Bypass flow (lpm),Sample temperature (°C),Ambient temperature (°C),ASC tube jacket temperature (°C),LED temperature (°C),Box temperature (°C),Sample RH (%),Span deviation,Mass concentration (μg/m³),Mass concentration (μg/m³),Mass concentration (μg/m³)
DateTimeUTC,F1_M11,P_M11,Q1_M11,Q2_M11,T1_M11,T2_M11,T3_M11,T4_M11,T5_M11,U1_M11,ZSPAN_M11,X2_M11,X0_M11,X1_M11
2023-01-26 12:00:00,,0829.3,5.01,0.00,21.9,20.3,00.0,30.8,23.5,04.8,0000.0,0001.12,0001.46,0001.03
2023-01-26 12:01:00,,0829.2,4.99,0.00,21.9,20.1,00.0,30.8,23.4,04.8,0000.0,0001.11,0001.45,0001.03
2023-01-26 12:02:00,,0829.2,5.00,0.00,21.9,20.4,00.0,30.7,23.5,04.7,0000.0,0001.09,0001.38,0001.02
2023-01-26 12:03:00,,0829.2,4.99,0.00,21.9,21.5,00.0,30.7,23.7,04.8,0000.0,0001.06,0001.34,0001.01
2023-01-26 12:04:00,,0829.2,5.00,0.00,22.1,22.5,00.0,30.7,23.9,04.7,0000.0,0001.04,0001.33,0000.99
2023-01-26 12:05:00,,0829.3,5.00,0.00,22.1,22.5,00.0,30.8,24.0,04.6,0000.0,0001.03,0001.31,0000.98
2023-01-26 12:06:00,,0829.3,5.00,0.00,22.1,21.9,00.0,30.8,24.0,04.6,0000.0,0001.04,0001.42,0000.98
2023-01-26 12:07:00,,0829.2,5.01,0.00,22.1,21.4,00.0,30.8,23.9,04.7,0000.0,0001.05,0001.45,0000.98
2023-01-26 12:08:00,,0829.2,5.00,0.00,22.1,21.0,00.0,30.8,23.8,04.7,0000.0,0001.04,0001.45,0000.98
2023-01-26 12:09:00,,0829.3,4.99,0.00,22.1,20.6,00.0,30.8,23.7,04.7,0000.0,0001.05,0001.45,0000.97
2023-01-26 12:10:00,,0829.3,5.00,0.00,22.0,20.3,00.0,30.8,23.6,04.6,0000.0,0001.06,0001.47,0000.99
2023-01-26 12:11:00,,0829.3,5.00,0.00,22.0,20.2,00.0,30.8,23.5,04.7,0000.0,0001.08,0001.49,0001.00
2023-01-26 12:12:00,,0829.3,4.99,0.00,21.9,20.1,00.0,30.8,23.5,04.7,0000.0,0001.09,0001.50,0001.01
2023-01-26 12:13:00,,0829.2,5.00,0.00,21.9,20.8,00.0,30.8,23.5,04.7,0000.0,0001.11,0001.53,0001.01
2023-01-26 12:14:00,,0829.3,5.01,0.00,22.0,21.8,00.0,30.8,23.8,04.6,0000.0,0001.14,0001.60,0001.02
2023-01-26 12:15:00,,0829.2,4.99,0.00,22.1,22.5,00.0,30.8,24.0,04.7,0000.0,0001.15,0001.59,0001.04
2023-01-26 12:16:00,,0829.2,4.99,0.00,22.2,22.2,00.0,30.8,24.0,04.7,0000.0,0001.18,0001.72,0001.06
2023-01-26 12:17:00,,0829.2,5.01,0.00,22.1,21.6,00.0,30.9,23.9,04.7,0000.0,0001.18,0001.70,0001.06
2023-01-26 12:18:00,,0829.2,5.01,0.00,22.1,21.1,00.0,30.9,23.8,04.7,0000.0,0001.18,0001.68,0001.06
2023-01-26 12:19:00,,0829.1,4.99,0.00,22.0,20.6,00.0,30.8,23.7,04.7,0000.0,0001.19,0001.70,0001.07
2023-01-26 12:20:00,,0829.1,5.01,0.00,22.0,20.2,00.0,30.8,23.5,04.6,0000.0,0001.19,0001.71,0001.07
2023-01-26 12:21:00,,0829.1,4.98,0.00,21.9,20.0,00.0,30.8,23.5,04.6,0000.0,0001.19,0001.71,0001.07
2023-01-26 12:22:00,,0829.1,5.00,0.00,21.9,19.9,00.0,30.8,23.4,04.7,0000.0,0001.20,0001.74,0001.07
2023-01-26 12:23:00,,0829.2,5.02,0.00,21.9,20.5,00.0,30.7,23.5,04.7,0000.0,0001.21,0001.77,0001.08
2023-01-26 12:24:00,,0829.2,5.00,0.00,22.0,21.7,00.0,30.7,23.8,04.6,0000.0,0001.20,0001.77,0001.08
2023-01-26 12:25:00,,0829.2,5.01,0.00,22.1,22.7,00.0,30.8,24.0,04.6,0000.0,0001.17,0001.68,0001.07
2023-01-26 12:26:00,,0829.2,4.99,0.00,22.2,22.4,00.0,30.8,24.1,04.6,0000.0,0001.18,0001.73,0001.08
2023-01-26 12:27:00,,0829.2,5.00,0.00,22.2,21.8,00.0,30.8,24.0,04.6,0000.0,0001.19,0001.69,0001.07
2023-01-26 12:28:00,,0829.2,5.00,0.00,22.1,21.3,00.0,30.8,23.9,04.5,0000.0,0001.17,0001.58,0001.07
2023-01-26 12:29:00,,0829.1,5.01,0.00,22.1,20.9,00.0,30.8,23.8,04.6,0000.0,0001.17,0001.61,0001.06
2023-01-26 12:30:00,,0829.1,5.00,0.00,22.1,20.6,00.0,30.8,23.7,04.6,0000.0,0001.17,0001.61,0001.07
2023-01-26 12:31:00,,0829.1,4.99,0.00,22.0,20.3,00.0,30.8,23.6,04.7,0000.0,0001.17,0001.60,0001.07
2023-01-26 12:32:00,,0829.0,4.99,0.00,22.0,20.1,00.0,30.8,23.5,04.7,0000.0,0001.19,0001.68,0001.09
2023-01-26 12:33:00,,0829.1,5.03,0.00,21.9,20.1,00.0,30.8,23.5,04.8,0000.0,0001.18,0003.09,0001.08
2023-01-26 12:34:00,,0829.1,5.00,0.00,22.0,21.1,00.0,30.8,23.7,04.8,0000.0,0001.16,0003.22,0001.07
2023-01-26 12:35:00,,0829.1,5.01,0.00,22.1,22.1,00.0,30.8,23.9,04.8,0000.0,0001.16,0003.21,0001.07
2023-01-26 12:36:00,,0829.1,5.00,0.00,22.2,22.7,00.0,30.8,24.1,04.8,0000.0,0001.18,0003.22,0001.08
2023-01-26 12:37:00,,0829.1,5.00,0.00,22.2,22.3,00.0,30.9,24.1,04.8,0000.0,0001.17,0003.19,0001.08
2023-01-26 12:38:00,,0829.1,5.01,0.00,22.2,21.7,00.0,30.9,24.0,04.7,0000.0,0001.16,0003.13,0001.09
2023-01-26 12:39:00,,0829.1,5.00,0.00,22.2,21.3,00.0,30.9,23.9,04.7,0000.0,0001.18,0003.16,0001.10
2023-01-26 12:40:00,,0829.2,5.00,0.00,22.1,20.9,00.0,30.9,23.8,04.7,0000.0,0001.18,0003.16,0001.11
2023-01-26 12:41:00,,0829.2,4.99,0.00,22.1,20.6,00.0,30.9,23.8,04.7,0000.0,0001.20,0003.19,0001.11
2023-01-26 12:42:00,,0829.2,5.01,0.00,22.1,20.4,00.0,30.9,23.7,04.7,0000.0,0001.20,0003.19,0001.11
2023-01-26 12:43:00,,0829.2,4.99,0.00,22.0,20.2,00.0,30.8,23.6,04.8,0000.0,0001.19,0003.13,0001.10
2023-01-26 12:44:00,,0829.2,4.99,0.00,22.0,20.2,00.0,30.8,23.5,04.8,0000.0,0001.20,0001.69,0001.10
2023-01-26 12:45:00,,0829.2,5.01,0.00,22.0,20.8,00.0,30.8,23.6,04.8,0000.0,0001.23,0001.58,0001.12
2023-01-26 12:46:00,,0829.2,5.00,0.00,22.1,21.9,00.0,30.8,23.9,04.8,0000.0,0001.22,0001.58,0001.11
2023-01-26 12:47:00,,0829.2,5.00,0.00,22.2,22.7,00.0,30.8,24.1,04.8,0000.0,0001.23,0001.61,0001.12
2023-01-26 12:48:00,,0829.2,4.99,0.00,22.2,22.4,00.0,30.9,24.1,04.8,0000.0,0001.23,0001.62,0001.11
2023-01-26 12:49:00,,0829.2,5.01,0.00,22.2,21.8,00.0,30.9,24.0,04.8,0000.0,0001.21,0001.60,0001.10
2023-01-26 12:50:00,,0829.3,5.01,0.00,22.2,21.3,00.0,30.9,23.9,04.8,0000.0,0001.21,0001.59,0001.10
2023-01-26 12:51:00,,0829.3,5.00,0.00,22.1,20.9,00.0,30.9,23.8,04.9,0000.0,0001.21,0001.57,0001.10
2023-01-26 12:52:00,,0829.2,4.99,0.00,22.1,20.7,00.0,30.9,23.7,04.9,0000.0,0001.18,0001.51,0001.09
2023-01-26 12:53:00,,0829.3,4.99,0.00,22.0,20.5,00.0,30.9,23.6,04.9,0000.0,0001.18,0001.53,0001.09
2023-01-26 12:54:00,,0829.3,4.99,0.00,22.0,20.3,00.0,30.9,23.6,04.8,0000.0,0001.19,0001.52,0001.09
2023-01-26 12:55:00,,0829.3,4.99,0.00,22.0,20.7,00.0,30.8,23.6,04.8,0000.0,0001.18,0001.50,0001.09
2023-01-26 12:56:00,,0829.2,5.01,0.00,22.1,21.8,00.0,30.8,23.9,04.7,0000.0,0001.15,0001.47,0001.07
2023-01-26 12:57:00,,0829.3,5.01,0.00,22.2,22.6,00.0,30.9,24.1,04.6,0000.0,0001.14,0001.46,0001.05
2023-01-26 12:58:00,,0829.2,5.00,0.00,22.3,22.5,00.0,30.9,24.2,04.5,0000.0,0001.09,0001.39,0001.02
2023-01-26 12:59:00,,0829.2,4.99,0.00,22.3,21.9,00.0,30.9,24.1,04.6,0000.0,0001.07,0001.35,0001.00
